Greybull, WY

3:17 AM MST on December 09, 2019 (GMT -0700)
South Big Horn County

Weather History for KGEY - November, 2019

Change the Weather History Date:

Tuesday, November 19, 2019

  Actual Average Record
Temperature  
Mean Temperature 43 °F 28 °F  
Max Temperature 59 °F 41 °F 64 °F (2003)
Min Temperature 27 °F 16 °F -4 °F (2000)
Degree Days  
Heating Degree Days 22 37  
Month to date heating degree days 595 591  
Since 1 July heating degree days 1593 1413  
Cooling Degree Days 0 0  
Month to date cooling degree days 0 0  
Year to date cooling degree days 733 669  
Moisture  
Dew Point 31 °F    
Average Humidity 71    
Maximum Humidity 92    
Minimum Humidity 40    
Precipitation  
Precipitation 0.00 in 0.01 in 0.01 in (2011)
Month to date precipitation 0.12 0.18  
Year to date precipitation 8.05 7.11  
Sea Level Pressure  
Sea Level Pressure 29.70 in    
Wind  
Wind Speed 3 mph ()    
Max Wind Speed 21 mph    
Max Gust Speed 27 mph    
Visibility 10.0 miles    
Events      
T = Trace of Precipitation, MM = Missing Value Source: Averaged Metar Reports

Daily Weather History Graph

Daily Weather History Graph

Search for Another Location

Airport or City:

Astronomy

Nov. 19, 2019 Rise Set
Actual Time 7:13 AM MST 4:41 PM MST
Civil Twilight 6:41 AM MST 5:12 PM MST
Nautical Twilight 6:06 AM MST 5:48 PM MST
Astronomical Twilight 5:31 AM MST 6:23 PM MST
Moon 11:43 PM MST (11/19) 1:24 PM MST (11/19)
Length of Visible Light 10h 31m
Length of Day
9h 27m
Waning Gibbous, 51% of the Moon is Illuminated
Nov 19
Waning Gibbous
Nov 19
Last Quarter
Nov 26
New
Dec 3
First Quarter
Dec 11
Full

Hourly Weather History & Observations

Time (MST) Temp. Windchill Dew Point Humidity Pressure Visibility Wind Dir Wind Speed Gust Speed Precip Events Conditions
12:53 AM 32.0 °F - 28.0 °F 85% 29.86 in 10.0 mi Calm Calm - N/A   Clear
1:53 AM 30.9 °F 26.2 °F 28.0 °F 89% 29.81 in 10.0 mi South 4.6 mph - N/A   Clear
2:53 AM 30.0 °F 26.5 °F 27.0 °F 88% 29.80 in 10.0 mi North 3.5 mph - N/A   Clear
3:53 AM 30.0 °F - 27.0 °F 88% 29.79 in 10.0 mi Calm Calm - N/A   Clear
4:53 AM 28.9 °F 23.9 °F 26.1 °F 89% 29.80 in 10.0 mi SE 4.6 mph - N/A   Clear
5:53 AM 32.0 °F 23.6 °F 28.0 °F 85% 29.78 in 10.0 mi East 10.4 mph - N/A   Clear
6:53 AM 34.0 °F 28.8 °F 28.0 °F 79% 29.77 in 10.0 mi ESE 5.8 mph - N/A   Clear
7:53 AM 30.9 °F 27.5 °F 27.0 °F 85% 29.78 in 10.0 mi NW 3.5 mph - N/A   Clear
8:53 AM 33.1 °F 30.0 °F 28.9 °F 85% 29.78 in 10.0 mi WSW 3.5 mph - N/A   Clear
9:53 AM 39.0 °F 36.8 °F 30.9 °F 73% 29.74 in 10.0 mi North 3.5 mph - N/A   Clear
10:53 AM 42.1 °F - 32.0 °F 67% 29.71 in 10.0 mi Calm Calm - N/A   Clear
11:53 AM 46.9 °F - 32.0 °F 56% 29.66 in 10.0 mi Calm Calm - N/A   Clear
12:53 PM 54.0 °F - 34.0 °F 47% 29.61 in 10.0 mi Calm Calm - N/A   Clear
1:53 PM 55.0 °F - 34.0 °F 45% 29.58 in 10.0 mi Calm Calm - N/A   Clear
2:53 PM 59.0 °F - 36.0 °F 42% 29.55 in 10.0 mi Calm Calm - N/A   Clear
4:53 PM 53.1 °F - 34.0 °F 48% 29.58 in 10.0 mi SSE 4.6 mph - N/A   Clear
5:53 PM 45.0 °F 42.6 °F 34.0 °F 65% 29.60 in 10.0 mi NNW 4.6 mph - N/A   Clear
6:53 PM 42.1 °F 39.2 °F 34.0 °F 73% 29.62 in 10.0 mi NW 4.6 mph - N/A   Scattered Clouds
7:53 PM 41.0 °F - 35.1 °F 79% 29.64 in 10.0 mi Calm Calm - N/A   Overcast
8:53 PM 42.1 °F 40.2 °F 35.1 °F 76% 29.65 in 10.0 mi West 3.5 mph - N/A   Overcast
9:53 PM 46.0 °F 40.2 °F 32.0 °F 58% 29.66 in 10.0 mi WNW 12.7 mph - N/A   Overcast
10:53 PM 44.1 °F 37.1 °F 33.1 °F 65% 29.67 in 10.0 mi NW 15.0 mph - N/A   Overcast
11:53 PM 45.0 °F 37.4 °F 33.1 °F 63% 29.68 in 10.0 mi NW 18.4 mph - N/A   Overcast